Location: Martley
(52.2333°N, 2.3667°W)
Time: 18:07:39
(UTC+00:00)

Meteor 1-11 Rocket - Pass Details

Date: 11 December 2019
Orbit: 831 x 916 km, 81.2° (Epoch: 26 January)

Event Time Altitude Azimuth Distance (km) Brightness Sun altitude
Rises 07:07:45 0° 203° (SSW) 3,452 6.9 -8.6°
Reaches altitude 10° 07:10:11 10° 207° (SSW) 2,531 6.2 -8.3°
Maximum altitude 07:15:54 61° 287° (WNW) 1,012 3.9 -7.5°
Drops below altitude 10° 07:21:46 10° 8° (N) 2,600 6.0 -6.7°
Sets 07:24:19 0° 12° (NNE) 3,554 6.8 -6.4°
